Find Starlink 34517

NORAD ID: 64595 Int'l Des: 2025-137 Owner: SPXS Country: US Constellation: starlink operational
LEOCIRCULAR

当前视图

正在加载3D地球...

About Starlink 34517

Starlink 34517 (NORAD 64595) is a starlink constellation satellite (v2 mini) launched Jun 25, 2025 by SPXS of US. It operates in LEO, CIRCULAR orbit with a mass of 575.00 kg.

即将过境

Passes for default location (London). Set your location on the main map for personalized predictions.

高度历史

Loading altitude history...

两行轨道根数

1 64595U 25137B 26237.38291551 .00011141 00000-0 34035-3 0 9997
2 64595 53.1572 269.4752 0001025 75.5820 284.5296 15.34402286 66591
Epoch: Aug 25, 2026 • Age: 22 hours

当前状态

高度 481.5 km
远地点 / 近地点 N/A
速度 7.62 km/s
星下点 -52.39°S, 114.6°E
发射日期 Jun 25, 2025
运行时间 1.1 years
类型 internet

技术详情

分类 Payload
质量 575.00 kg
干质量 530.00 kg
总质量 575.00 kg
长度 0.30 m
直径 4.10 m
跨度 29.00 m
形状 Box + pan
制造商 SPXS
平台类型 Starlink V2MO
阶段状态 In Orbit
所有者/国家 SPXS/US

Most Searched